Temp_Advection
nan nan nan nan nan nan nan nan nan nan nan nan nan nan nan nan nan nan nan nan nan nan nan nan nan nan nan nan nan nan nan nan nan nan nan nan nan nan nan nan nan nan nan nan nan nan nan nan nan
nan -0 -1 -0 -0 -0 -0 -0 0 0 -0 0 -0 -0 -0 0 -1 -1 -0 -0 0 -0 -0 0 -1 -0 0 0 0 0 0 0 0 0 -0 -0 -0 0 0 -0 -0 0 0 -0 0 0 0 0 nan
nan -0 -1 -0 -0 -1 -0 0 -0 -0 0 -0 -0 -0 -0 -0 -0 -0 -0 -0 0 -0 -1 -0 -1 -0 0 0 0 0 0 0 0 -0 -0 -0 0 0 -0 -0 -0 -0 0 -0 -0 0 0 -0 nan
nan -1 -1 -0 -0 -1 -0 0 0 -0 -0 0 0 -0 -0 -0 -0 -0 -0 0 -0 -0 -0 -0 0 -0 0 0 0 0 0 0 0 -0 -0 0 -0 -0 -0 -0 -0 -0 -0 -0 -0 0 -0 -0 nan
nan -1 -0 -0 -1 -1 0 -0 0 0 -0 -0 -0 0 -1 -0 -0 -0 -0 0 0 -0 0 0 1 -0 0 0 0 0 -0 -0 -0 0 0 0 0 -0 -0 -0 -0 -0 -0 -0 -0 -0 -0 -0 nan
nan -1 -0 -1 -1 -1 0 0 0 -0 -0 -0 -0 0 -1 -1 -0 -0 0 0 0 0 0 0 -0 -0 -0 -0 0 -0 -0 -0 0 0 0 0 -0 -0 0 -0 -0 -0 -0 -0 0 0 -0 -0 nan
nan -0 -0 -1 -0 -0 0 0 0 -0 -0 0 -0 0 -1 -1 -0 -0 0 0 0 0 -0 -0 0 -0 -1 -1 -1 -0 -0 0 0 0 0 0 0 0 0 0 -0 -0 0 0 0 0 0 0 nan
nan -0 -0 -1 -0 -0 0 0 0 -0 0 0 0 0 0 -0 -0 -0 -0 0 0 0 -0 -0 0 -0 0 0 -1 -0 -0 0 0 0 0 -0 0 0 0 0 0 -0 0 0 0 0 0 0 nan
nan -0 -1 -2 -1 -0 0 0 0 0 0 0 0 0 -0 0 -0 0 -0 0 0 0 -0 -0 -0 0 0 0 0 -0 0 1 0 0 -0 0 0 0 0 0 0 0 0 0 -0 0 0 0 nan
nan -1 -2 -1 0 0 0 0 0 0 -0 -0 0 0 -0 0 0 1 1 0 0 0 0 0 0 -0 -0 -0 0 0 1 0 0 0 0 0 0 0 0 0 0 0 0 -0 -0 0 0 0 nan
nan -1 -1 0 -0 -0 0 -0 0 -0 -0 0 0 0 0 -0 0 0 0 0 0 0 0 -0 0 0 0 0 0 0 -0 -0 -0 -0 -0 -0 -0 0 0 -0 0 0 0 0 0 0 0 0 nan
nan -1 -1 1 0 0 -0 -0 0 -0 0 0 0 0 0 -0 -0 -0 -0 -0 0 0 -0 -0 -0 0 0 0 -0 -0 -0 -0 -0 -0 -0 -0 -0 0 0 0 0 0 0 0 0 0 0 -0 nan
nan -0 1 0 0 -0 -0 -0 0 0 0 0 0 0 -0 -0 -0 0 -0 -0 0 -0 -0 -0 -0 0 0 -1 -0 -0 0 0 0 -0 -0 -0 0 0 -0 -0 0 -0 -0 0 0 0 -0 -0 nan
nan 0 0 0 -0 -0 0 0 0 0 0 0 0 -0 -0 -0 0 0 0 -0 -0 -0 -0 -0 0 0 -1 -1 -0 -0 0 0 -0 -0 0 0 0 0 -0 0 0 -0 0 0 0 0 0 0 nan
nan 0 0 0 0 0 0 -0 -0 -0 0 0 -0 -0 -0 -0 0 0 -0 -0 -0 0 0 0 -0 -0 0 0 0 0 -0 0 0 0 0 0 0 0 -0 0 0 -0 -0 0 0 0 0 -0 nan
nan 0 0 0 -0 0 0 -1 -1 1 0 -0 -0 -0 0 0 0 -0 0 0 0 0 0 0 0 1 0 0 -0 -1 0 0 -0 0 0 0 0 0 0 0 0 0 0 0 0 0 -0 -0 nan
nan 0 -1 -0 0 0 -0 -1 -0 0 -0 -0 -0 0 0 0 0 -0 0 0 0 0 0 0 0 0 0 0 -1 -1 0 0 0 0 0 0 0 0 0 0 0 0 0 0 0 -0 -1 -0 nan
nan -1 -1 -0 0 0 -0 -1 -0 0 -0 -0 -0 -0 0 0 0 0 0 1 1 0 0 0 0 0 0 0 0 -0 -1 -1 0 0 0 0 0 0 0 -0 0 0 0 0 0 -0 -1 0 nan
nan -0 -0 0 -0 0 -0 -1 0 0 0 -0 -0 -0 -0 -0 0 1 1 0 0 0 0 0 0 0 0 0 0 -1 -2 -0 0 0 1 1 0 0 -0 -0 -0 -0 -0 0 0 -0 -0 0 nan
nan 0 0 0 0 -0 -0 0 -0 -0 0 0 0 0 0 0 1 1 0 0 -0 -0 0 -0 -0 -0 -0 0 0 -0 -1 -1 1 1 1 0 1 1 -0 -1 0 0 1 0 -0 -0 -0 -0 nan
nan 0 0 0 0 -0 -0 -0 -1 0 0 0 0 0 -0 0 0 0 0 -0 -0 -0 -0 -0 0 0 -0 -0 0 0 1 1 -1 -1 -1 1 2 2 1 0 1 0 -0 -0 0 -0 -1 -0 nan
nan 0 0 0 0 -0 -0 -0 -0 0 0 0 -0 0 0 0 0 0 0 -0 -0 -0 -0 -0 -0 -0 -0 1 1 0 0 0 0 0 -0 -1 -1 2 1 0 0 0 -0 -1 -1 1 1 0 nan
nan 0 0 0 -0 -0 -0 -0 0 -0 -0 -0 -0 -0 0 -0 0 -0 -0 -0 -0 -0 -0 -0 -0 -0 -0 -0 0 1 1 0 0 0 0 0 -1 -2 2 2 0 -1 0 0 -0 -0 -0 1 nan
nan 0 0 0 0 -0 -0 -0 -0 -0 -1 -0 -0 -0 -0 -0 -0 -0 0 -0 -0 -0 -1 -1 -0 -0 -0 -1 -0 1 0 -0 -0 0 0 0 1 0 -0 0 0 0 -0 -2 2 2 -0 1 nan
nan -0 -0 0 -0 -0 0 0 -0 -0 0 -0 -0 -0 -0 -0 0 0 -0 -0 -0 -0 -1 -0 -0 -0 -0 -0 -0 -0 -0 0 -0 -0 -0 0 0 0 -0 0 -0 0 1 1 2 1 -1 -0 nan
nan 1 0 -0 -0 -0 -0 -1 0 0 0 0 0 0 0 0 0 0 -0 -0 -0 -0 -0 -0 -0 -0 -0 -0 -0 -0 -0 -0 -0 -0 0 0 0 0 0 -0 1 1 1 0 0 1 1 0 nan
nan -0 -0 -0 0 -0 -0 -0 -0 0 0 0 0 0 0 0 0 0 0 -0 -0 -0 -0 -0 -0 -0 -0 -0 -0 -0 -0 -0 -0 -0 0 -0 0 0 0 0 -0 0 1 0 0 0 0 0 nan
nan -0 0 -0 -0 -0 -0 -0 -0 -0 -0 -0 -0 0 0 0 0 0 0 -0 -0 -0 -0 -0 -0 -0 -0 -0 -0 -0 -0 -0 -1 -1 0 0 -0 0 0 -0 0 0 -0 -0 0 1 0 1 nan
nan -0 -0 -0 -0 -0 0 0 -0 -1 -0 0 0 0 0 0 0 0 0 -0 -0 -0 -0 -0 -0 -1 -0 -0 -0 -0 -0 -0 -1 -1 -1 -0 -0 0 1 1 0 0 0 0 0 0 0 1 nan
nan nan nan nan nan nan nan nan nan nan nan nan nan nan nan nan nan nan nan nan nan nan nan nan nan nan nan nan nan nan nan nan nan nan nan nan nan nan nan nan nan nan nan nan nan nan nan nan nan
Wind_Speed
9 5 6 6 6 6 11 4 3 5 5 2 1 6 3 11 6 0 5 6 14 17 17 17 17 15 15 14 13 11 10 9 6 5 5 5 3 2 1 1 8 6 9 11 8 5 6 6 4
7 6 7 8 7 10 10 9 8 4 5 4 4 6 7 4 7 5 5 9 15 16 15 15 17 16 15 16 12 10 10 9 7 6 4 4 1 1 4 10 12 9 11 11 6 3 5 6 8
12 8 13 5 11 13 10 8 8 5 2 2 4 4 1 5 7 3 3 13 17 15 14 15 16 18 16 14 13 11 10 9 7 5 2 1 2 4 7 12 14 11 10 8 4 2 4 7 9
7 8 12 10 14 16 14 5 4 7 4 3 0 4 5 5 2 4 9 15 16 15 13 15 16 19 15 14 14 12 11 9 7 6 2 3 4 5 6 8 12 10 10 7 3 1 5 7 8
12 13 10 14 19 14 12 10 8 6 4 3 2 5 6 5 7 9 12 15 14 14 13 13 15 16 16 14 13 12 11 9 8 5 4 4 5 6 7 8 9 8 8 6 4 5 6 6 6
16 19 11 17 18 18 10 11 9 10 4 2 5 3 9 7 8 9 12 13 12 13 12 14 16 15 17 15 15 13 13 10 8 6 5 4 5 7 8 9 10 10 9 8 7 7 6 4 4
21 14 18 18 16 16 17 12 13 11 11 7 1 8 11 9 7 10 10 11 12 12 12 12 14 14 15 15 14 14 13 12 10 8 7 7 7 7 8 10 10 10 9 8 7 5 4 4 4
24 10 21 19 16 18 12 14 11 15 12 4 3 6 9 6 5 10 12 10 11 12 12 11 11 11 11 13 14 14 15 16 12 11 8 9 9 9 8 7 8 9 9 7 5 3 3 3 3
14 10 14 23 21 16 13 10 16 8 13 8 8 4 5 6 6 8 11 14 11 11 12 10 12 11 11 10 11 12 12 19 14 12 11 10 8 10 9 10 8 8 8 7 6 3 3 2 2
15 15 24 20 18 11 14 14 14 8 13 13 10 4 3 6 6 8 10 12 14 13 12 12 13 12 12 11 11 11 10 11 15 15 14 9 9 8 7 10 12 11 10 10 7 5 4 3 2
16 21 20 21 6 6 15 15 12 13 11 14 15 10 5 6 7 9 10 10 14 14 16 14 13 13 12 11 10 10 10 11 13 14 14 13 12 14 15 14 14 13 13 10 10 8 7 5 5
13 26 22 21 4 4 13 14 14 14 7 8 6 6 4 6 8 10 11 11 12 15 16 17 16 14 14 12 12 11 12 12 13 15 16 14 16 15 12 11 10 11 11 9 10 8 9 9 7
17 10 20 9 5 10 15 16 14 15 10 8 8 5 4 5 6 9 12 13 14 13 15 16 15 16 15 16 12 13 13 15 14 15 17 17 16 17 16 15 17 15 12 12 12 11 11 10 10
14 14 13 13 8 7 10 14 12 13 12 12 12 11 9 10 9 8 11 13 14 13 13 15 16 16 16 18 19 14 14 14 15 16 18 20 18 17 15 17 21 19 15 14 13 13 13 11 12
10 16 8 15 13 7 9 14 18 18 11 14 15 13 13 14 15 15 14 14 14 15 14 14 15 16 18 18 19 21 17 15 16 17 18 20 22 20 18 17 23 23 20 15 15 14 14 14 14
10 13 13 11 12 10 10 14 18 23 20 23 20 19 19 19 19 19 18 16 14 13 15 16 17 17 19 20 20 21 22 20 17 17 18 20 22 23 22 21 25 23 23 17 17 17 19 18 17
13 12 17 12 17 11 14 10 14 11 8 13 16 16 17 18 17 19 20 20 19 19 18 18 18 20 20 20 22 25 25 24 22 19 19 20 22 23 25 25 24 23 22 21 22 21 20 20 19
18 20 17 16 10 15 19 15 11 8 11 16 16 16 17 17 16 15 14 16 17 19 20 20 21 21 21 21 21 28 27 29 29 25 23 23 24 25 27 26 24 23 24 26 26 24 24 23 22
13 17 14 13 8 8 14 16 15 14 17 19 19 18 18 18 15 10 11 13 14 15 17 18 20 21 22 24 24 30 34 31 32 33 32 24 26 25 28 29 27 28 29 31 28 26 27 27 24
9 14 13 4 9 7 11 13 11 13 20 21 20 19 17 15 14 9 7 7 9 15 16 17 18 21 25 28 28 28 34 39 38 37 39 37 37 33 31 34 33 32 32 32 32 31 32 32 31
12 14 14 6 9 9 5 13 17 12 8 7 7 11 11 10 8 5 2 1 2 5 11 18 23 23 24 26 27 29 26 28 30 36 40 43 43 40 34 35 36 36 36 36 36 35 36 37 35
12 4 7 6 9 5 8 3 8 11 7 6 8 7 7 7 6 3 1 3 5 5 4 5 9 15 23 28 26 26 27 30 31 29 29 33 35 37 36 37 38 39 41 41 40 39 40 39 40
6 11 8 5 6 3 8 4 8 11 10 10 9 8 6 5 3 1 3 5 6 8 8 9 9 10 12 16 23 30 30 28 27 28 28 28 29 39 37 36 38 42 43 43 42 41 43 42 43
12 12 8 4 2 4 10 8 9 10 13 13 11 8 5 3 1 1 4 6 6 9 10 12 12 12 13 15 16 19 26 23 25 26 25 26 27 29 33 33 36 39 41 45 46 44 44 44 44
9 14 5 5 4 4 3 5 4 7 10 13 12 7 4 1 1 3 5 7 8 10 11 12 12 13 13 13 13 12 16 22 25 25 25 24 24 24 30 31 31 36 38 40 42 43 47 47 45
13 14 2 7 6 7 4 7 1 10 10 7 8 2 2 2 2 4 6 8 9 9 10 11 11 11 10 11 12 13 12 13 15 21 27 24 24 24 24 29 32 32 34 36 37 38 43 47 46
4 6 3 2 1 2 7 5 7 8 10 7 10 3 2 3 4 5 7 9 9 9 9 9 10 10 10 11 11 10 11 12 15 16 16 17 20 25 23 22 27 28 28 32 35 38 38 42 45
2 1 2 2 4 5 6 5 4 13 12 13 8 3 3 4 5 6 7 8 8 8 8 9 9 10 12 12 11 10 11 12 14 17 16 18 21 21 16 25 27 25 26 27 31 34 38 40 41
4 2 4 4 2 3 2 3 7 15 15 12 5 2 3 4 5 7 7 7 6 7 8 9 9 11 12 13 12 11 10 9 11 13 17 20 22 23 24 23 23 22 24 25 26 30 35 37 38
5 5 10 3 4 1 3 2 3 14 11 5 2 2 3 4 5 7 8 8 7 8 8 8 9 10 10 11 10 9 9 8 8 11 11 14 16 18 20 21 22 21 19 21 21 23 27 30 34
Wind_Direction
233 266 270 257 243 231 241 212 268 203 204 142 338 244 284 336 348 1 139 149 157 155 164 164 155 153 157 158 161 163 153 156 162 182 200 260 232 263 346 106 121 121 136 138 139 96 51 41 59
219 249 243 253 244 229 227 202 205 197 36 286 239 235 252 221 45 81 107 155 152 155 160 164 157 156 156 153 160 162 149 163 172 186 253 277 265 95 107 132 124 116 141 148 135 60 30 59 94
219 228 244 229 232 240 236 148 225 133 153 184 186 239 33 57 52 68 136 147 151 155 154 180 166 162 160 162 169 169 165 174 192 207 239 171 123 111 126 148 154 158 151 156 168 19 48 95 101
204 225 242 241 227 227 251 111 198 177 161 152 178 201 123 56 84 94 130 143 150 153 156 198 179 162 160 168 179 177 174 187 199 229 202 144 125 125 135 160 174 174 171 182 198 99 96 107 101
203 234 229 220 238 237 229 110 204 181 132 193 298 139 112 74 99 110 126 141 150 154 169 198 169 163 167 173 172 180 182 187 195 214 191 162 149 138 133 141 160 175 173 173 169 129 111 111 102
209 229 228 228 221 229 213 226 207 229 207 223 226 216 98 119 109 124 136 146 156 160 168 183 175 178 174 176 173 178 188 196 199 210 198 182 166 153 144 143 153 157 159 159 147 133 124 115 107
233 217 228 240 227 227 229 210 210 231 219 213 239 243 123 120 142 135 139 151 156 164 165 190 183 183 187 187 191 192 195 189 206 211 212 190 173 169 161 153 152 150 152 151 146 138 130 122 109
218 245 237 241 229 232 207 223 231 236 238 195 208 231 146 125 177 159 147 161 163 170 171 184 180 188 188 189 194 197 203 203 199 210 219 206 184 175 170 167 166 163 160 160 161 155 147 133 119
221 235 230 235 231 233 230 220 223 238 252 205 206 299 89 127 199 189 175 167 170 178 178 182 179 187 185 191 205 197 199 199 202 208 212 201 189 188 179 183 184 192 179 192 196 195 182 162 133
212 223 225 230 238 226 215 219 221 212 219 220 210 189 119 166 207 196 193 180 177 183 188 187 187 193 187 185 218 201 198 190 196 210 226 206 188 207 196 216 197 200 196 212 213 218 215 223 253
218 231 231 242 292 265 226 213 227 208 217 221 215 194 197 186 205 206 203 205 201 198 189 189 198 197 196 193 199 192 198 198 205 209 213 201 201 219 216 228 213 208 209 226 225 229 231 223 220
237 224 245 239 217 201 240 218 203 221 219 211 184 156 204 211 212 212 213 205 208 210 212 208 195 201 203 202 201 203 201 204 205 206 205 201 209 213 212 211 219 210 228 203 230 230 232 237 240
219 223 224 255 175 220 234 228 224 220 198 164 178 227 216 222 229 226 221 218 216 216 219 222 220 209 211 205 215 208 212 214 212 210 209 207 212 226 208 212 223 204 219 211 222 218 230 240 241
211 219 219 215 188 199 218 224 215 232 220 219 225 236 238 238 239 240 233 231 228 226 227 227 226 227 218 229 208 213 220 223 217 217 218 213 213 217 224 230 236 227 209 222 220 222 224 227 238
245 205 212 210 205 208 220 242 226 237 222 229 234 235 235 241 242 244 240 238 234 235 233 231 231 231 230 238 235 229 215 225 228 225 226 223 219 218 220 219 240 228 219 224 224 221 221 223 232
187 207 206 203 209 221 191 245 223 227 239 242 243 244 245 245 246 244 243 241 238 235 230 230 232 233 235 231 241 240 236 228 229 230 229 228 227 225 222 220 240 231 225 217 227 224 227 231 237
206 201 207 198 202 206 204 249 220 187 220 237 238 239 243 246 249 249 246 246 245 244 243 241 235 234 237 239 246 245 247 245 232 232 232 232 231 230 228 224 221 239 226 222 226 228 232 235 235
199 217 201 201 187 221 222 239 251 242 243 246 249 247 245 247 251 252 250 246 246 246 245 244 243 243 236 239 241 254 250 249 249 236 237 237 234 235 229 227 226 225 222 222 229 226 234 235 235
242 202 226 214 140 204 228 242 236 226 244 249 255 254 252 253 253 247 261 260 256 250 247 245 245 240 239 236 236 249 259 256 250 249 244 232 241 236 236 238 229 222 221 236 233 229 233 229 225
252 193 196 183 165 212 238 236 244 240 244 248 255 259 259 258 254 254 262 263 260 256 250 249 246 245 243 243 237 245 259 259 256 253 248 244 246 247 239 246 241 237 235 226 236 235 231 233 230
209 201 191 232 187 228 280 261 239 226 248 242 249 248 247 238 214 197 210 350 22 285 259 252 247 243 241 243 244 239 246 254 261 255 254 251 248 245 240 244 242 237 239 239 240 241 238 238 233
195 188 153 176 191 220 195 267 169 166 178 189 166 159 153 151 155 156 127 1 360 332 324 305 278 263 254 249 246 239 241 242 243 246 260 263 258 250 239 243 244 242 242 239 246 246 245 240 241
118 154 167 180 228 307 192 250 132 173 184 174 161 150 149 146 146 103 9 353 344 321 315 308 305 303 285 270 256 251 246 245 249 250 254 249 259 262 257 242 241 246 247 247 244 244 247 245 243
130 127 136 138 220 239 223 226 178 183 187 172 155 150 142 139 120 6 340 338 329 321 312 305 298 294 293 289 284 263 251 243 248 249 250 250 253 257 264 256 243 245 248 251 253 248 249 250 243
163 174 160 193 198 238 127 203 318 134 151 170 170 153 145 142 237 318 326 328 324 318 312 307 301 294 289 284 280 282 269 251 244 249 255 256 256 260 266 265 258 246 246 245 258 251 249 251 246
184 204 270 205 194 176 157 221 138 154 150 143 172 172 248 267 300 318 326 329 321 316 316 312 311 313 308 292 279 272 272 270 264 255 248 250 253 260 264 274 272 261 252 249 245 248 247 252 251
169 211 7 314 68 222 179 188 157 165 181 190 185 252 263 286 307 318 324 322 320 316 319 317 314 314 307 307 298 297 284 279 269 265 263 260 259 252 252 257 271 270 262 251 250 248 244 248 253
244 314 189 207 212 218 172 209 166 178 176 168 181 243 260 288 297 305 313 317 321 317 318 317 314 312 308 304 302 304 306 297 287 282 284 266 261 272 261 264 252 257 262 260 252 253 249 249 259
158 200 227 287 300 294 214 138 88 159 158 162 181 229 274 297 300 307 314 316 317 322 329 324 321 308 305 302 304 296 305 315 302 289 279 275 277 276 269 261 261 256 257 261 261 258 256 254 257
313 228 210 236 187 248 313 85 207 156 144 152 239 268 294 301 311 319 317 318 319 310 313 325 325 324 321 314 310 303 291 307 328 312 319 300 286 285 281 272 264 263 262 266 270 270 266 263 259
Height
1517 1518 1520 1520 1519 1507 1503 1499 1496 1500 1502 1503 1505 1504 1501 1500 1499 1508 1512 1513 1516 1518 1517 1519 1522 1525 1527 1530 1532 1534 1535 1537 1538 1539 1540 1538 1539 1540 1540 1541 1542 1542 1543 1544 1545 1545 1545 1545 1545
1517 1520 1520 1514 1514 1509 1500 1492 1502 1498 1501 1506 1505 1506 1505 1501 1506 1510 1513 1512 1517 1520 1519 1521 1523 1526 1528 1531 1534 1535 1537 1538 1539 1539 1539 1539 1539 1539 1540 1541 1543 1544 1545 1546 1547 1547 1547 1547 1547
1516 1519 1518 1510 1506 1506 1498 1492 1496 1502 1506 1504 1504 1505 1504 1504 1510 1512 1512 1513 1518 1522 1523 1522 1523 1526 1529 1532 1535 1536 1538 1539 1540 1540 1540 1540 1540 1540 1541 1542 1543 1545 1547 1548 1548 1549 1548 1549 1549
1517 1520 1516 1506 1501 1496 1490 1492 1496 1503 1504 1505 1506 1503 1509 1511 1512 1513 1512 1516 1519 1523 1525 1522 1524 1527 1530 1533 1535 1537 1539 1540 1541 1541 1540 1540 1540 1541 1542 1543 1545 1546 1548 1549 1550 1550 1550 1550 1551
1517 1514 1507 1504 1499 1491 1491 1497 1502 1502 1504 1504 1506 1501 1505 1511 1512 1513 1514 1518 1522 1525 1525 1523 1524 1527 1530 1533 1535 1538 1539 1541 1541 1542 1542 1542 1542 1542 1543 1544 1545 1547 1549 1550 1550 1551 1551 1552 1552
1514 1508 1501 1498 1496 1491 1491 1498 1502 1504 1503 1505 1505 1504 1507 1512 1514 1515 1516 1519 1522 1525 1525 1523 1525 1527 1530 1532 1535 1537 1540 1541 1542 1542 1543 1544 1544 1544 1545 1546 1547 1548 1550 1551 1551 1551 1552 1552 1553
1508 1501 1497 1490 1492 1492 1492 1498 1502 1503 1503 1504 1505 1504 1508 1513 1512 1514 1518 1520 1522 1524 1526 1524 1525 1527 1529 1531 1534 1536 1539 1541 1542 1543 1543 1545 1546 1547 1547 1547 1549 1549 1550 1551 1552 1553 1553 1553 1554
1502 1498 1497 1489 1490 1493 1492 1499 1502 1503 1503 1504 1508 1504 1505 1513 1511 1513 1517 1521 1523 1524 1527 1526 1526 1528 1530 1532 1533 1535 1538 1540 1542 1544 1544 1545 1546 1546 1548 1549 1549 1550 1551 1552 1553 1554 1554 1554 1554
1501 1500 1498 1490 1487 1490 1495 1498 1501 1504 1504 1506 1507 1508 1511 1512 1511 1512 1514 1517 1523 1524 1526 1528 1530 1531 1532 1533 1533 1534 1536 1538 1542 1543 1544 1544 1546 1546 1547 1548 1550 1551 1552 1552 1553 1554 1555 1555 1555
1497 1490 1485 1483 1484 1488 1494 1500 1498 1505 1504 1503 1507 1509 1510 1511 1511 1512 1514 1516 1521 1523 1526 1528 1530 1532 1533 1534 1533 1534 1536 1537 1540 1543 1543 1545 1548 1548 1548 1548 1549 1550 1551 1552 1554 1554 1555 1555 1556
1492 1485 1485 1483 1487 1489 1493 1498 1498 1501 1500 1502 1504 1507 1511 1511 1511 1512 1514 1515 1517 1519 1522 1526 1529 1531 1532 1533 1535 1535 1537 1538 1541 1543 1543 1544 1549 1548 1548 1548 1549 1549 1550 1551 1553 1554 1555 1555 1556
1489 1487 1486 1486 1492 1495 1496 1496 1497 1500 1500 1501 1504 1508 1510 1511 1512 1512 1513 1516 1519 1517 1519 1521 1525 1528 1530 1532 1533 1536 1536 1537 1539 1540 1542 1544 1546 1547 1548 1550 1549 1550 1550 1553 1552 1553 1554 1554 1555
1489 1484 1489 1491 1495 1496 1498 1495 1496 1497 1500 1504 1505 1507 1508 1510 1511 1512 1512 1514 1515 1517 1516 1518 1521 1524 1527 1529 1532 1533 1535 1535 1536 1538 1539 1542 1544 1544 1545 1548 1547 1550 1551 1552 1551 1552 1552 1553 1554
1488 1488 1490 1492 1496 1498 1498 1497 1498 1498 1499 1502 1504 1505 1506 1507 1509 1510 1511 1512 1514 1516 1516 1516 1518 1521 1523 1524 1527 1531 1533 1534 1533 1534 1535 1537 1540 1542 1543 1545 1544 1545 1549 1549 1549 1549 1550 1551 1551
1489 1488 1490 1491 1494 1496 1500 1497 1493 1497 1498 1499 1500 1501 1503 1505 1506 1507 1509 1510 1513 1515 1516 1517 1517 1518 1519 1520 1522 1525 1529 1531 1531 1532 1532 1532 1534 1537 1540 1542 1540 1542 1544 1547 1547 1547 1547 1547 1547
1488 1488 1492 1488 1492 1495 1499 1491 1489 1493 1496 1496 1496 1498 1499 1501 1503 1504 1506 1508 1510 1512 1513 1515 1516 1516 1517 1517 1518 1520 1523 1526 1528 1529 1530 1530 1530 1531 1533 1536 1535 1537 1539 1542 1544 1544 1542 1543 1544
1483 1485 1485 1485 1488 1492 1495 1489 1487 1491 1494 1493 1494 1495 1496 1497 1499 1501 1502 1504 1506 1508 1510 1511 1512 1514 1515 1516 1515 1516 1518 1520 1523 1525 1526 1526 1527 1528 1529 1529 1531 1530 1534 1536 1538 1538 1539 1539 1540
1475 1482 1474 1479 1486 1488 1488 1490 1485 1490 1491 1492 1493 1493 1493 1494 1496 1497 1498 1500 1501 1503 1504 1506 1508 1509 1511 1512 1514 1511 1512 1514 1517 1519 1521 1521 1521 1522 1524 1526 1528 1529 1529 1530 1531 1532 1533 1535 1536
1466 1475 1472 1474 1483 1486 1486 1485 1484 1487 1489 1489 1488 1489 1490 1491 1492 1493 1494 1495 1496 1496 1498 1500 1502 1504 1506 1506 1507 1505 1504 1507 1509 1511 1514 1517 1517 1518 1518 1519 1521 1523 1524 1522 1525 1527 1527 1529 1531
1471 1471 1476 1479 1482 1488 1481 1482 1482 1485 1484 1485 1485 1485 1486 1488 1489 1490 1491 1491 1490 1490 1492 1494 1495 1497 1498 1499 1501 1501 1499 1499 1500 1502 1505 1509 1509 1510 1512 1512 1513 1514 1516 1517 1518 1519 1521 1522 1523
1472 1474 1476 1483 1487 1486 1485 1481 1478 1477 1483 1483 1485 1486 1486 1486 1487 1489 1490 1489 1487 1486 1486 1487 1488 1489 1491 1493 1494 1494 1496 1495 1494 1494 1495 1498 1501 1503 1505 1505 1507 1508 1509 1509 1510 1513 1514 1515 1516
1473 1472 1477 1486 1486 1483 1481 1471 1464 1474 1480 1482 1482 1482 1484 1485 1486 1488 1488 1487 1486 1484 1483 1484 1483 1483 1484 1486 1486 1487 1488 1490 1490 1491 1491 1491 1492 1493 1496 1498 1498 1500 1501 1501 1502 1503 1506 1509 1509
1472 1477 1482 1486 1486 1484 1481 1482 1461 1469 1478 1479 1481 1482 1484 1485 1486 1487 1486 1485 1485 1483 1482 1481 1481 1480 1480 1479 1479 1480 1481 1484 1486 1486 1487 1488 1486 1485 1488 1490 1492 1491 1492 1493 1495 1496 1496 1498 1501
1477 1481 1486 1486 1486 1490 1473 1473 1461 1466 1466 1475 1480 1482 1483 1484 1485 1485 1485 1484 1484 1481 1480 1479 1478 1478 1477 1476 1475 1474 1475 1478 1480 1481 1481 1482 1481 1480 1479 1481 1484 1484 1485 1486 1486 1488 1488 1489 1493
1476 1479 1488 1493 1494 1479 1480 1485 1454 1458 1461 1471 1477 1480 1482 1483 1484 1483 1483 1482 1481 1478 1477 1476 1475 1474 1473 1473 1472 1472 1471 1472 1473 1475 1476 1477 1477 1476 1474 1474 1475 1477 1478 1479 1480 1480 1480 1480 1483
1477 1473 1472 1476 1470 1466 1489 1479 1459 1464 1469 1473 1476 1480 1481 1481 1481 1481 1481 1480 1479 1477 1475 1473 1472 1470 1469 1469 1467 1467 1468 1467 1467 1468 1469 1469 1471 1472 1472 1469 1468 1469 1471 1472 1473 1473 1473 1474 1475
1486 1485 1477 1474 1474 1471 1465 1463 1468 1468 1471 1474 1477 1479 1478 1479 1479 1479 1478 1478 1476 1474 1473 1472 1470 1468 1467 1466 1464 1464 1463 1463 1462 1462 1462 1463 1464 1464 1465 1465 1462 1461 1463 1464 1466 1465 1466 1465 1467
1486 1480 1483 1480 1480 1465 1456 1452 1447 1464 1468 1472 1474 1476 1476 1477 1478 1477 1476 1475 1473 1471 1470 1469 1467 1465 1463 1462 1461 1460 1459 1459 1458 1457 1457 1457 1457 1457 1459 1457 1458 1457 1457 1458 1458 1458 1458 1458 1458
1489 1487 1481 1474 1473 1464 1448 1447 1442 1456 1464 1469 1472 1474 1475 1476 1476 1475 1473 1473 1471 1468 1466 1465 1463 1461 1460 1458 1457 1457 1457 1456 1454 1453 1452 1452 1451 1450 1450 1450 1451 1451 1452 1452 1453 1453 1452 1453 1453
1471 1467 1467 1467 1475 1472 1471 1458 1454 1457 1463 1468 1470 1471 1472 1473 1472 1471 1470 1470 1468 1464 1462 1462 1460 1459 1456 1454 1454 1454 1453 1453 1453 1450 1448 1447 1446 1446 1445 1444 1443 1444 1446 1446 1447 1448 1448 1448 1448